START_TIME,STEP,MOV.,P1,t_acc.,E44,t_acc.,A3,t_acc.,P10,t_acc.
1980-11-13 12:00:11.790 ,4,0,7.,1.2,0.,1.2,0.,1.2,0.,1.2
1980-11-13 12:00:12.990 ,4,0,6.,1.2,0.,1.2,0.,1.2,0.,1.2
1980-11-13 12:00:14.190 ,4,0,13.,1.2,0.,1.2,0.,1.2,0.,1.2
1980-11-13 12:00:15.390 ,4,0,6.,1.2,0.,1.2,0.,1.2,0.,1.2
1980-11-13 12:00:16.590 ,4,0,7.,1.2,0.,1.2,0.,1.2,0.,1.2
1980-11-13 12:00:17.790 ,4,0,10.,1.2,0.,1.2,0.,1.2,0.,1.2
1980-11-13 12:00:18.990 ,4,0,4.,1.2,0.,1.2,0.,1.2,0.,1.2
1980-11-13 12:00:20.190 ,4,0,5.,1.2,0.,1.2,0.,1.2,0.,1.2
1980-11-13 12:00:21.390 ,4,0,6.,1.2,0.,1.2,0.,1.2,0.,1.2
1980-11-13 12:00:22.590 ,4,0,9.,1.2,0.,1.2,0.,1.2,0.,1.2
1980-11-13 12:00:23.790 ,4,0,4.,1.2,0.,1.2,0.,1.2,0.,1.2
1980-11-13 12:00:24.990 ,4,0,2.,1.2,0.,1.2,0.,1.2,0.,1.2
1980-11-13 12:00:26.190 ,4,0,4.,1.2,0.,1.2,0.,1.2,0.,1.2
1980-11-13 12:00:27.390 ,4,0,4.,1.2,0.,1.2,0.,1.2,0.,1.2
1980-11-13 12:00:28.590 ,4,0,9.,1.2,0.,1.2,0.,1.2,0.,1.2
1980-11-13 12:00:29.790 ,4,0,10.,1.2,0.,1.2,0.,1.2,0.,1.2
1980-11-13 12:00:30.990 ,4,0,10.,1.2,0.,1.2,0.,1.2,0.,1.2
1980-11-13 12:00:32.190 ,4,0,8.,1.2,0.,1.2,0.,1.2,0.,1.2
1980-11-13 12:00:33.390 ,4,0,8.,1.2,0.,1.2,0.,1.2,0.,1.2
1980-11-13 12:00:34.590 ,4,0,7.,1.2,0.,1.2,0.,1.2,0.,1.2
1980-11-13 12:00:35.790 ,5,0,5.,1.2,0.,1.2,0.,1.2,0.,1.2
1980-11-13 12:00:36.990 ,5,0,11.,1.2,0.,1.2,0.,1.2,0.,1.2
1980-11-13 12:00:38.190 ,5,0,7.,1.2,0.,1.2,0.,1.2,0.,1.2
1980-11-13 12:00:39.390 ,5,0,9.,1.2,0.,1.2,0.,1.2,0.,1.2
1980-11-13 12:00:40.590 ,5,0,8.,1.2,0.,1.2,0.,1.2,0.,1.2
1980-11-13 12:00:41.790 ,5,0,6.,1.2,0.,1.2,0.,1.2,0.,1.2
1980-11-13 12:00:42.990 ,5,0,6.,1.2,0.,1.2,0.,1.2,0.,1.2
1980-11-13 12:00:44.190 ,5,0,4.,1.2,0.,1.2,0.,1.2,0.,1.2
1980-11-13 12:00:45.390 ,5,0,4.,1.2,0.,1.2,0.,1.2,0.,1.2
1980-11-13 12:00:46.590 ,5,0,8.,1.2,0.,1.2,0.,1.2,0.,1.2
1980-11-13 12:00:47.790 ,5,0,6.,1.2,0.,1.2,0.,1.2,0.,1.2
1980-11-13 12:00:48.990 ,5,0,5.,1.2,0.,1.2,0.,1.2,0.,1.2
1980-11-13 12:00:50.190 ,5,0,6.,1.2,0.,1.2,0.,1.2,0.,1.2
1980-11-13 12:00:51.390 ,5,0,7.,1.2,0.,1.2,0.,1.2,1.,1.2
1980-11-13 12:00:52.590 ,5,0,4.,1.2,0.,1.2,0.,1.2,0.,1.2
1980-11-13 12:00:53.790 ,5,0,6.,1.2,0.,1.2,0.,1.2,0.,1.2
1980-11-13 12:00:54.990 ,5,0,4.,1.2,0.,1.2,0.,1.2,0.,1.2
1980-11-13 12:00:56.190 ,5,0,6.,1.2,0.,1.2,0.,1.2,0.,1.2
1980-11-13 12:00:57.390 ,5,0,4.,1.2,0.,1.2,0.,1.2,0.,1.2
1980-11-13 12:00:58.590 ,5,0,7.,1.2,0.,1.2,0.,1.2,0.,1.2
1980-11-13 12:00:59.790 ,5,0,5.,1.2,0.,1.2,0.,1.2,0.,1.2
1980-11-13 12:01:00.990 ,5,0,2.,1.2,0.,1.2,0.,1.2,0.,1.2
1980-11-13 12:01:02.190 ,5,0,7.,1.2,0.,1.2,0.,1.2,0.,1.2
1980-11-13 12:01:03.390 ,5,0,6.,1.2,0.,1.2,0.,1.2,0.,1.2
1980-11-13 12:01:04.590 ,5,0,7.,1.2,0.,1.2,0.,1.2,0.,1.2
1980-11-13 12:01:05.790 ,5,0,5.,1.2,0.,1.2,0.,1.2,0.,1.2
1980-11-13 12:01:06.990 ,5,0,8.,1.2,0.,1.2,0.,1.2,0.,1.2
1980-11-13 12:01:08.190 ,5,0,9.,1.2,0.,1.2,0.,1.2,0.,1.2
1980-11-13 12:01:09.390 ,5,0,9.,1.2,0.,1.2,0.,1.2,0.,1.2
1980-11-13 12:01:10.590 ,5,0,5.,1.2,0.,1.2,0.,1.2,0.,1.2
1980-11-13 12:01:11.790 ,5,0,3.,1.2,0.,1.2,0.,1.2,0.,1.2
1980-11-13 12:01:12.990 ,5,0,5.,1.2,0.,1.2,0.,1.2,0.,1.2
1980-11-13 12:01:14.190 ,5,0,2.,1.2,0.,1.2,0.,1.2,0.,1.2
1980-11-13 12:01:15.390 ,5,0,5.,1.2,0.,1.2,0.,1.2,0.,1.2
1980-11-13 12:01:16.590 ,5,0,11.,1.2,0.,1.2,1.,1.2,0.,1.2
1980-11-13 12:01:17.790 ,5,0,6.,1.2,0.,1.2,0.,1.2,0.,1.2
1980-11-13 12:01:18.990 ,5,0,7.,1.2,0.,1.2,0.,1.2,0.,1.2
1980-11-13 12:01:20.190 ,5,0,13.,1.2,0.,1.2,0.,1.2,0.,1.2
1980-11-13 12:01:21.390 ,5,0,7.,1.2,0.,1.2,0.,1.2,0.,1.2
1980-11-13 12:01:22.590 ,5,0,6.,1.2,0.,1.2,0.,1.2,0.,1.2
1980-11-13 12:01:23.790 ,6,0,9.,1.2,0.,1.2,0.,1.2,0.,1.2
1980-11-13 12:01:24.990 ,6,0,1.,1.2,0.,1.2,0.,1.2,0.,1.2
1980-11-13 12:01:26.190 ,6,0,4.,1.2,0.,1.2,0.,1.2,0.,1.2
1980-11-13 12:01:27.390 ,6,0,8.,1.2,0.,1.2,0.,1.2,0.,1.2
1980-11-13 12:01:28.590 ,6,0,9.,1.2,0.,1.2,0.,1.2,0.,1.2
1980-11-13 12:01:29.790 ,6,0,6.,1.2,0.,1.2,0.,1.2,0.,1.2
1980-11-13 12:01:30.990 ,6,0,10.,1.2,0.,1.2,0.,1.2,0.,1.2
1980-11-13 12:01:32.190 ,6,0,11.,1.2,0.,1.2,0.,1.2,0.,1.2
1980-11-13 12:01:33.390 ,6,0,8.,1.2,0.,1.2,0.,1.2,0.,1.2
1980-11-13 12:01:34.590 ,6,0,7.,1.2,0.,1.2,0.,1.2,0.,1.2
1980-11-13 12:01:35.790 ,6,0,7.,1.2,0.,1.2,0.,1.2,0.,1.2
1980-11-13 12:01:36.990 ,6,0,5.,1.2,0.,1.2,0.,1.2,0.,1.2
1980-11-13 12:01:38.190 ,6,0,16.,1.2,0.,1.2,0.,1.2,0.,1.2
1980-11-13 12:01:39.390 ,6,0,11.,1.2,0.,1.2,0.,1.2,0.,1.2
1980-11-13 12:01:40.590 ,6,0,11.,1.2,0.,1.2,0.,1.2,0.,1.2
1980-11-13 12:01:41.790 ,6,0,7.,1.2,0.,1.2,0.,1.2,0.,1.2
1980-11-13 12:01:42.990 ,6,0,7.,1.2,0.,1.2,0.,1.2,0.,1.2
1980-11-13 12:01:44.190 ,6,0,9.,1.2,0.,1.2,0.,1.2,0.,1.2
1980-11-13 12:01:45.390 ,6,0,8.,1.2,0.,1.2,0.,1.2,0.,1.2
1980-11-13 12:01:46.590 ,6,0,13.,1.2,0.,1.2,0.,1.2,0.,1.2
1980-11-13 12:01:47.790 ,6,0,7.,1.2,0.,1.2,0.,1.2,0.,1.2
1980-11-13 12:01:48.990 ,6,0,3.,1.2,0.,1.2,0.,1.2,0.,1.2
1980-11-13 12:01:50.190 ,6,0,7.,1.2,0.,1.2,0.,1.2,0.,1.2
1980-11-13 12:01:51.390 ,6,0,11.,1.2,0.,1.2,0.,1.2,0.,1.2
1980-11-13 12:01:52.590 ,6,0,12.,1.2,0.,1.2,0.,1.2,0.,1.2
1980-11-13 12:01:53.790 ,6,0,10.,1.2,0.,1.2,0.,1.2,0.,1.2
1980-11-13 12:01:54.990 ,6,0,5.,1.2,0.,1.2,0.,1.2,0.,1.2
1980-11-13 12:01:56.190 ,6,0,7.,1.2,0.,1.2,0.,1.2,0.,1.2
1980-11-13 12:01:57.390 ,6,0,9.,1.2,0.,1.2,0.,1.2,0.,1.2
1980-11-13 12:01:58.590 ,6,0,6.,1.2,0.,1.2,0.,1.2,0.,1.2
1980-11-13 12:01:59.790 ,6,0,7.,1.2,0.,1.2,0.,1.2,0.,1.2
1980-11-13 12:02:00.990 ,6,0,11.,1.2,0.,1.2,0.,1.2,0.,1.2
1980-11-13 12:02:02.190 ,6,0,12.,1.2,0.,1.2,0.,1.2,0.,1.2
1980-11-13 12:02:03.390 ,6,0,5.,1.2,0.,1.2,0.,1.2,0.,1.2
1980-11-13 12:02:04.590 ,6,0,6.,1.2,0.,1.2,0.,1.2,0.,1.2
1980-11-13 12:02:05.790 ,6,0,3.,1.2,0.,1.2,0.,1.2,0.,1.2
1980-11-13 12:02:06.990 ,6,0,10.,1.2,0.,1.2,0.,1.2,0.,1.2
1980-11-13 12:02:08.190 ,6,0,9.,1.2,0.,1.2,0.,1.2,0.,1.2
1980-11-13 12:02:09.390 ,6,0,9.,1.2,0.,1.2,0.,1.2,0.,1.2
1980-11-13 12:02:10.590 ,6,0,17.,1.2,0.,1.2,0.,1.2,0.,1.2
1980-11-13 12:02:11.790 ,7,0,8.,1.2,0.,1.2,0.,1.2,0.,1.2
1980-11-13 12:02:12.990 ,7,0,10.,1.2,0.,1.2,0.,1.2,0.,1.2
1980-11-13 12:02:14.190 ,7,0,11.,1.2,0.,1.2,0.,1.2,0.,1.2
1980-11-13 12:02:15.390 ,7,0,9.,1.2,0.,1.2,0.,1.2,0.,1.2
1980-11-13 12:02:16.590 ,7,0,3.,1.2,0.,1.2,0.,1.2,0.,1.2
1980-11-13 12:02:17.790 ,7,0,2.,1.2,0.,1.2,2.,1.2,0.,1.2
1980-11-13 12:02:18.990 ,7,0,0.,1.2,0.,1.2,3.,1.2,0.,1.2
1980-11-13 12:02:20.190 ,7,0,0.,1.2,0.,1.2,1.,1.2,0.,1.2
1980-11-13 12:02:21.390 ,7,0,0.,1.2,0.,1.2,1.,1.2,0.,1.2
1980-11-13 12:02:22.590 ,7,0,0.,1.2,0.,1.2,4.,1.2,0.,1.2
1980-11-13 12:02:23.790 ,7,0,0.,1.2,0.,1.2,6.,1.2,0.,1.2
1980-11-13 12:02:24.990 ,7,0,0.,1.2,0.,1.2,7.,1.2,0.,1.2
1980-11-13 12:02:26.190 ,7,0,0.,1.2,0.,1.2,3.,1.2,0.,1.2
1980-11-13 12:02:27.390 ,7,0,0.,1.2,0.,1.2,8.,1.2,0.,1.2
1980-11-13 12:02:28.590 ,7,0,0.,1.2,0.,1.2,2.,1.2,0.,1.2
1980-11-13 12:02:29.790 ,7,0,0.,1.2,0.,1.2,4.,1.2,0.,1.2
1980-11-13 12:02:30.990 ,7,0,0.,1.2,0.,1.2,3.,1.2,0.,1.2
1980-11-13 12:02:32.190 ,7,0,0.,1.2,0.,1.2,2.,1.2,0.,1.2
1980-11-13 12:02:33.390 ,7,0,0.,1.2,0.,1.2,5.,1.2,0.,1.2
1980-11-13 12:02:34.590 ,7,0,0.,1.2,0.,1.2,6.,1.2,0.,1.2
1980-11-13 12:02:35.790 ,7,0,0.,1.2,0.,1.2,3.,1.2,0.,1.2
1980-11-13 12:02:36.990 ,7,0,0.,1.2,0.,1.2,3.,1.2,0.,1.2
1980-11-13 12:02:38.190 ,7,0,0.,1.2,0.,1.2,6.,1.2,0.,1.2
1980-11-13 12:02:39.390 ,7,0,0.,1.2,0.,1.2,5.,1.2,0.,1.2
1980-11-13 12:02:40.590 ,7,0,0.,1.2,0.,1.2,6.,1.2,0.,1.2
1980-11-13 12:02:41.790 ,7,0,0.,1.2,0.,1.2,5.,1.2,0.,1.2
1980-11-13 12:02:42.990 ,7,0,0.,1.2,0.,1.2,6.,1.2,0.,1.2
1980-11-13 12:02:44.190 ,7,0,0.,1.2,0.,1.2,6.,1.2,0.,1.2
1980-11-13 12:02:45.390 ,7,0,0.,1.2,0.,1.2,2.,1.2,0.,1.2
1980-11-13 12:02:46.590 ,7,0,0.,1.2,0.,1.2,4.,1.2,0.,1.2
1980-11-13 12:02:47.790 ,7,0,0.,1.2,0.,1.2,10.,1.2,0.,1.2
1980-11-13 12:02:48.990 ,7,0,0.,1.2,0.,1.2,4.,1.2,0.,1.2
1980-11-13 12:02:50.190 ,7,0,0.,1.2,0.,1.2,5.,1.2,0.,1.2
1980-11-13 12:02:51.390 ,7,0,0.,1.2,0.,1.2,4.,1.2,0.,1.2
1980-11-13 12:02:52.590 ,7,0,0.,1.2,0.,1.2,6.,1.2,0.,1.2
1980-11-13 12:02:53.790 ,7,0,0.,1.2,0.,1.2,8.,1.2,0.,1.2
1980-11-13 12:02:54.990 ,7,0,0.,1.2,0.,1.2,6.,1.2,0.,1.2
1980-11-13 12:02:56.190 ,7,0,0.,1.2,0.,1.2,6.,1.2,0.,1.2
1980-11-13 12:02:57.390 ,7,0,0.,1.2,0.,1.2,2.,1.2,0.,1.2
1980-11-13 12:02:58.590 ,7,0,0.,1.2,0.,1.2,7.,1.2,0.,1.2
1980-11-13 12:02:59.790 ,7,0,0.,1.2,0.,1.2,7.,1.2,0.,1.2
1980-11-13 12:03:00.990 ,7,0,0.,1.2,0.,1.2,3.,1.2,1.,1.2
1980-11-13 12:03:02.190 ,7,0,0.,1.2,0.,1.2,2.,1.2,0.,1.2
1980-11-13 12:03:03.390 ,7,0,0.,1.2,0.,1.2,5.,1.2,0.,1.2
1980-11-13 12:03:04.590 ,7,0,0.,1.2,0.,1.2,8.,1.2,0.,1.2
1980-11-13 12:03:05.790 ,7,0,0.,1.2,0.,1.2,8.,1.2,0.,1.2
1980-11-13 12:03:06.990 ,7,0,0.,1.2,0.,1.2,3.,1.2,0.,1.2
1980-11-13 12:03:08.190 ,7,0,0.,1.2,0.,1.2,2.,1.2,0.,1.2
1980-11-13 12:03:09.390 ,7,0,0.,1.2,0.,1.2,2.,1.2,0.,1.2
1980-11-13 12:03:10.590 ,7,0,0.,1.2,0.,1.2,4.,1.2,0.,1.2
1980-11-13 12:03:11.790 ,7,0,0.,1.2,0.,1.2,6.,1.2,0.,1.2
1980-11-13 12:03:12.990 ,7,0,0.,1.2,0.,1.2,3.,1.2,0.,1.2
1980-11-13 12:03:14.190 ,7,0,0.,1.2,0.,1.2,5.,1.2,0.,1.2
1980-11-13 12:03:15.390 ,7,0,0.,1.2,0.,1.2,7.,1.2,0.,1.2
1980-11-13 12:03:16.590 ,7,0,0.,1.2,0.,1.2,7.,1.2,0.,1.2
1980-11-13 12:03:17.790 ,7,0,0.,1.2,0.,1.2,5.,1.2,0.,1.2
1980-11-13 12:03:18.990 ,7,0,0.,1.2,0.,1.2,5.,1.2,0.,1.2
1980-11-13 12:03:20.190 ,7,0,0.,1.2,0.,1.2,4.,1.2,0.,1.2
1980-11-13 12:03:21.390 ,7,0,0.,1.2,0.,1.2,5.,1.2,0.,1.2
1980-11-13 12:03:22.590 ,7,0,0.,1.2,0.,1.2,4.,1.2,0.,1.2
1980-11-13 12:03:23.790 ,7,0,0.,1.2,0.,1.2,6.,1.2,0.,1.2
1980-11-13 12:03:24.990 ,7,0,0.,1.2,0.,1.2,4.,1.2,0.,1.2
1980-11-13 12:03:26.190 ,7,0,0.,1.2,0.,1.2,8.,1.2,0.,1.2
1980-11-13 12:03:27.390 ,7,0,0.,1.2,0.,1.2,4.,1.2,0.,1.2
1980-11-13 12:03:28.590 ,7,0,0.,1.2,0.,1.2,5.,1.2,0.,1.2
1980-11-13 12:03:29.790 ,7,0,0.,1.2,0.,1.2,8.,1.2,0.,1.2
1980-11-13 12:03:30.990 ,7,0,0.,1.2,0.,1.2,2.,1.2,0.,1.2
1980-11-13 12:03:32.190 ,7,0,0.,1.2,0.,1.2,4.,1.2,0.,1.2
1980-11-13 12:03:33.390 ,7,0,0.,1.2,0.,1.2,2.,1.2,0.,1.2
1980-11-13 12:03:34.590 ,7,0,0.,1.2,0.,1.2,3.,1.2,0.,1.2
1980-11-13 12:03:35.790 ,7,0,0.,1.2,0.,1.2,2.,1.2,0.,1.2
1980-11-13 12:03:36.990 ,7,0,0.,1.2,0.,1.2,7.,1.2,0.,1.2
1980-11-13 12:03:38.190 ,7,0,0.,1.2,0.,1.2,4.,1.2,0.,1.2
1980-11-13 12:03:39.390 ,7,0,0.,1.2,0.,1.2,4.,1.2,0.,1.2
1980-11-13 12:03:40.590 ,7,0,0.,1.2,0.,1.2,6.,1.2,0.,1.2
1980-11-13 12:03:41.790 ,7,0,0.,1.2,0.,1.2,4.,1.2,0.,1.2
1980-11-13 12:03:42.990 ,7,0,0.,1.2,0.,1.2,2.,1.2,0.,1.2
1980-11-13 12:03:44.190 ,7,0,0.,1.2,0.,1.2,4.,1.2,0.,1.2
1980-11-13 12:03:45.390 ,7,0,0.,1.2,0.,1.2,3.,1.2,0.,1.2
1980-11-13 12:03:46.590 ,7,0,0.,1.2,0.,1.2,3.,1.2,0.,1.2
1980-11-13 12:03:47.790 ,6,0,0.,1.2,0.,1.2,7.,1.2,0.,1.2
1980-11-13 12:03:48.990 ,6,0,0.,1.2,0.,1.2,2.,1.2,0.,1.2
1980-11-13 12:03:50.190 ,6,0,0.,1.2,0.,1.2,1.,1.2,0.,1.2
1980-11-13 12:03:51.390 ,6,0,0.,1.2,0.,1.2,3.,1.2,0.,1.2
1980-11-13 12:03:52.590 ,6,0,0.,1.2,0.,1.2,3.,1.2,0.,1.2
1980-11-13 12:03:53.790 ,6,0,6.,1.2,0.,1.2,5.,1.2,0.,1.2
1980-11-13 12:03:54.990 ,6,0,9.,1.2,0.,1.2,0.,1.2,0.,1.2
1980-11-13 12:03:56.190 ,6,0,11.,1.2,0.,1.2,0.,1.2,0.,1.2
1980-11-13 12:03:57.390 ,6,0,7.,1.2,0.,1.2,0.,1.2,0.,1.2
1980-11-13 12:03:58.590 ,6,0,8.,1.2,0.,1.2,0.,1.2,0.,1.2
1980-11-13 12:03:59.790 ,6,0,8.,1.2,0.,1.2,0.,1.2,0.,1.2
1980-11-13 12:04:00.990 ,6,0,9.,1.2,0.,1.2,0.,1.2,0.,1.2
1980-11-13 12:04:02.190 ,6,0,9.,1.2,0.,1.2,0.,1.2,0.,1.2
1980-11-13 12:04:03.390 ,6,0,14.,1.2,0.,1.2,0.,1.2,0.,1.2
1980-11-13 12:04:04.590 ,6,0,17.,1.2,0.,1.2,0.,1.2,0.,1.2
1980-11-13 12:04:05.790 ,6,0,5.,1.2,0.,1.2,0.,1.2,0.,1.2
1980-11-13 12:04:06.990 ,6,0,10.,1.2,0.,1.2,0.,1.2,0.,1.2
1980-11-13 12:04:08.190 ,6,0,9.,1.2,0.,1.2,0.,1.2,0.,1.2
1980-11-13 12:04:09.390 ,6,0,14.,1.2,0.,1.2,0.,1.2,0.,1.2
1980-11-13 12:04:10.590 ,6,0,12.,1.2,0.,1.2,0.,1.2,0.,1.2
1980-11-13 12:04:11.790 ,6,0,9.,1.2,0.,1.2,0.,1.2,1.,1.2
1980-11-13 12:04:12.990 ,6,0,10.,1.2,0.,1.2,0.,1.2,0.,1.2
1980-11-13 12:04:14.190 ,6,0,5.,1.2,0.,1.2,0.,1.2,0.,1.2
1980-11-13 12:04:15.390 ,6,0,12.,1.2,0.,1.2,0.,1.2,0.,1.2
1980-11-13 12:04:16.590 ,6,0,15.,1.2,0.,1.2,0.,1.2,0.,1.2
1980-11-13 12:04:17.790 ,6,0,12.,1.2,0.,1.2,0.,1.2,0.,1.2
1980-11-13 12:04:18.990 ,6,0,9.,1.2,0.,1.2,0.,1.2,0.,1.2
1980-11-13 12:04:20.190 ,6,0,8.,1.2,0.,1.2,0.,1.2,0.,1.2
1980-11-13 12:04:21.390 ,6,0,10.,1.2,0.,1.2,0.,1.2,0.,1.2
1980-11-13 12:04:22.590 ,6,0,11.,1.2,0.,1.2,0.,1.2,0.,1.2
1980-11-13 12:04:23.790 ,6,0,8.,1.2,0.,1.2,0.,1.2,0.,1.2
1980-11-13 12:04:24.990 ,6,0,13.,1.2,0.,1.2,0.,1.2,0.,1.2
1980-11-13 12:04:26.190 ,6,0,9.,1.2,0.,1.2,0.,1.2,0.,1.2
1980-11-13 12:04:27.390 ,6,0,7.,1.2,0.,1.2,0.,1.2,0.,1.2
1980-11-13 12:04:28.590 ,6,0,5.,1.2,0.,1.2,0.,1.2,0.,1.2
1980-11-13 12:04:29.790 ,6,0,10.,1.2,0.,1.2,0.,1.2,0.,1.2
1980-11-13 12:04:30.990 ,6,0,9.,1.2,0.,1.2,0.,1.2,0.,1.2
1980-11-13 12:04:32.190 ,6,0,6.,1.2,0.,1.2,0.,1.2,0.,1.2
1980-11-13 12:04:33.390 ,6,0,12.,1.2,0.,1.2,0.,1.2,0.,1.2
1980-11-13 12:04:34.590 ,6,0,7.,1.2,0.,1.2,0.,1.2,0.,1.2
1980-11-13 12:04:35.790 ,5,0,4.,1.2,0.,1.2,0.,1.2,0.,1.2
1980-11-13 12:04:36.990 ,5,0,8.,1.2,0.,1.2,1.,1.2,0.,1.2
1980-11-13 12:04:38.190 ,5,0,9.,1.2,0.,1.2,0.,1.2,0.,1.2
1980-11-13 12:04:39.390 ,5,0,12.,1.2,0.,1.2,0.,1.2,0.,1.2
1980-11-13 12:04:40.590 ,5,0,12.,1.2,0.,1.2,0.,1.2,0.,1.2
1980-11-13 12:04:41.790 ,5,0,12.,1.2,0.,1.2,0.,1.2,0.,1.2
1980-11-13 12:04:42.990 ,5,0,8.,1.2,0.,1.2,0.,1.2,0.,1.2
1980-11-13 12:04:44.190 ,5,0,12.,1.2,0.,1.2,0.,1.2,0.,1.2
1980-11-13 12:04:45.390 ,5,0,13.,1.2,0.,1.2,0.,1.2,0.,1.2
1980-11-13 12:04:46.590 ,5,0,6.,1.2,0.,1.2,0.,1.2,0.,1.2
1980-11-13 12:04:47.790 ,5,0,10.,1.2,0.,1.2,0.,1.2,0.,1.2
1980-11-13 12:04:48.990 ,5,0,7.,1.2,0.,1.2,0.,1.2,0.,1.2
1980-11-13 12:04:50.190 ,5,0,7.,1.2,0.,1.2,0.,1.2,0.,1.2
1980-11-13 12:04:51.390 ,5,0,5.,1.2,0.,1.2,0.,1.2,0.,1.2
1980-11-13 12:04:52.590 ,5,0,14.,1.2,0.,1.2,0.,1.2,0.,1.2
1980-11-13 12:04:53.790 ,5,0,6.,1.2,0.,1.2,0.,1.2,0.,1.2
1980-11-13 12:04:54.990 ,5,0,4.,1.2,0.,1.2,0.,1.2,0.,1.2
1980-11-13 12:04:56.190 ,5,0,7.,1.2,0.,1.2,0.,1.2,1.,1.2
1980-11-13 12:04:57.390 ,5,0,7.,1.2,0.,1.2,0.,1.2,0.,1.2
1980-11-13 12:04:58.590 ,5,0,11.,1.2,0.,1.2,0.,1.2,0.,1.2
1980-11-13 12:04:59.790 ,5,0,4.,1.2,0.,1.2,0.,1.2,0.,1.2
1980-11-13 12:05:00.990 ,5,0,8.,1.2,0.,1.2,0.,1.2,0.,1.2
1980-11-13 12:05:02.190 ,5,0,5.,1.2,0.,1.2,0.,1.2,0.,1.2
1980-11-13 12:05:03.390 ,5,0,7.,1.2,0.,1.2,0.,1.2,0.,1.2
1980-11-13 12:05:04.590 ,5,0,10.,1.2,0.,1.2,0.,1.2,0.,1.2
1980-11-13 12:05:05.790 ,5,0,3.,1.2,0.,1.2,0.,1.2,0.,1.2
1980-11-13 12:05:06.990 ,5,0,4.,1.2,0.,1.2,0.,1.2,0.,1.2
1980-11-13 12:05:08.190 ,5,0,4.,1.2,0.,1.2,0.,1.2,0.,1.2
1980-11-13 12:05:09.390 ,5,0,5.,1.2,0.,1.2,0.,1.2,0.,1.2
1980-11-13 12:05:10.590 ,5,0,9.,1.2,0.,1.2,0.,1.2,0.,1.2
1980-11-13 12:05:11.790 ,5,0,5.,1.2,0.,1.2,0.,1.2,0.,1.2
1980-11-13 12:05:12.990 ,5,0,9.,1.2,0.,1.2,0.,1.2,0.,1.2
1980-11-13 12:05:14.190 ,5,0,4.,1.2,0.,1.2,0.,1.2,0.,1.2
1980-11-13 12:05:15.390 ,5,0,4.,1.2,0.,1.2,0.,1.2,0.,1.2
1980-11-13 12:05:16.590 ,5,0,10.,1.2,0.,1.2,0.,1.2,0.,1.2
1980-11-13 12:05:17.790 ,5,0,4.,1.2,0.,1.2,0.,1.2,0.,1.2
1980-11-13 12:05:18.990 ,5,0,5.,1.2,0.,1.2,0.,1.2,0.,1.2
1980-11-13 12:05:20.190 ,5,0,2.,1.2,0.,1.2,0.,1.2,0.,1.2
1980-11-13 12:05:21.390 ,5,0,11.,1.2,0.,1.2,0.,1.2,0.,1.2
1980-11-13 12:05:22.590 ,5,0,9.,1.2,0.,1.2,0.,1.2,0.,1.2
1980-11-13 12:05:23.790 ,4,0,7.,1.2,0.,1.2,0.,1.2,0.,1.2
1980-11-13 12:05:24.990 ,4,0,4.,1.2,0.,1.2,0.,1.2,0.,1.2
1980-11-13 12:05:26.190 ,4,0,9.,1.2,0.,1.2,0.,1.2,0.,1.2
1980-11-13 12:05:27.390 ,4,0,4.,1.2,0.,1.2,0.,1.2,0.,1.2
1980-11-13 12:05:28.590 ,4,0,6.,1.2,0.,1.2,0.,1.2,0.,1.2
1980-11-13 12:05:29.790 ,4,0,1.,1.2,0.,1.2,0.,1.2,0.,1.2
1980-11-13 12:05:30.990 ,4,0,6.,1.2,0.,1.2,0.,1.2,0.,1.2
1980-11-13 12:05:32.190 ,4,0,3.,1.2,0.,1.2,0.,1.2,0.,1.2
1980-11-13 12:05:33.390 ,4,0,10.,1.2,0.,1.2,0.,1.2,0.,1.2
1980-11-13 12:05:34.590 ,4,0,7.,1.2,0.,1.2,0.,1.2,0.,1.2
1980-11-13 12:05:35.790 ,4,0,7.,1.2,0.,1.2,0.,1.2,0.,1.2
1980-11-13 12:05:36.990 ,4,0,6.,1.2,0.,1.2,0.,1.2,0.,1.2
1980-11-13 12:05:38.190 ,4,0,9.,1.2,0.,1.2,0.,1.2,0.,1.2
1980-11-13 12:05:39.390 ,4,0,5.,1.2,0.,1.2,0.,1.2,0.,1.2
1980-11-13 12:05:40.590 ,4,0,5.,1.2,0.,1.2,0.,1.2,0.,1.2
1980-11-13 12:05:41.790 ,4,0,4.,1.2,0.,1.2,0.,1.2,0.,1.2
1980-11-13 12:05:42.990 ,4,0,8.,1.2,0.,1.2,0.,1.2,0.,1.2
1980-11-13 12:05:44.190 ,4,0,6.,1.2,0.,1.2,0.,1.2,0.,1.2
1980-11-13 12:05:45.390 ,4,0,2.,1.2,0.,1.2,0.,1.2,0.,1.2
1980-11-13 12:05:46.590 ,4,0,6.,1.2,0.,1.2,0.,1.2,0.,1.2
1980-11-13 12:05:47.790 ,4,0,7.,1.2,0.,1.2,0.,1.2,0.,1.2
1980-11-13 12:05:48.990 ,4,0,3.,1.2,0.,1.2,0.,1.2,0.,1.2
1980-11-13 12:05:50.190 ,4,0,6.,1.2,0.,1.2,0.,1.2,0.,1.2
1980-11-13 12:05:51.390 ,4,0,5.,1.2,0.,1.2,0.,1.2,0.,1.2
1980-11-13 12:05:52.590 ,4,0,5.,1.2,0.,1.2,0.,1.2,0.,1.2
1980-11-13 12:05:53.790 ,4,0,7.,1.2,0.,1.2,0.,1.2,0.,1.2
1980-11-13 12:05:54.990 ,4,0,10.,1.2,0.,1.2,0.,1.2,0.,1.2
1980-11-13 12:05:56.190 ,4,0,8.,1.2,0.,1.2,0.,1.2,0.,1.2
1980-11-13 12:05:57.390 ,4,0,9.,1.2,0.,1.2,0.,1.2,0.,1.2
1980-11-13 12:05:58.590 ,4,0,11.,1.2,0.,1.2,0.,1.2,0.,1.2
1980-11-13 12:05:59.790 ,4,0,5.,1.2,0.,1.2,0.,1.2,0.,1.2
1980-11-13 12:06:00.990 ,4,0,3.,1.2,0.,1.2,0.,1.2,0.,1.2
1980-11-13 12:06:02.190 ,4,0,3.,1.2,0.,1.2,0.,1.2,1.,1.2
1980-11-13 12:06:03.390 ,4,0,6.,1.2,0.,1.2,0.,1.2,0.,1.2
1980-11-13 12:06:04.590 ,4,0,7.,1.2,0.,1.2,0.,1.2,0.,1.2
1980-11-13 12:06:05.790 ,4,0,4.,1.2,0.,1.2,0.,1.2,0.,1.2
1980-11-13 12:06:06.990 ,4,0,3.,1.2,0.,1.2,0.,1.2,0.,1.2
1980-11-13 12:06:08.190 ,4,0,4.,1.2,0.,1.2,0.,1.2,0.,1.2
1980-11-13 12:06:09.390 ,4,0,8.,1.2,0.,1.2,0.,1.2,0.,1.2
1980-11-13 12:06:10.590 ,4,0,9.,1.2,0.,1.2,0.,1.2,0.,1.2
1980-11-13 12:06:11.790 ,3,0,4.,1.2,0.,1.2,0.,1.2,0.,1.2
1980-11-13 12:06:12.990 ,3,0,6.,1.2,0.,1.2,0.,1.2,0.,1.2
1980-11-13 12:06:14.190 ,3,0,10.,1.2,0.,1.2,0.,1.2,0.,1.2
1980-11-13 12:06:15.390 ,3,0,6.,1.2,0.,1.2,0.,1.2,0.,1.2
1980-11-13 12:06:16.590 ,3,0,3.,1.2,0.,1.2,0.,1.2,0.,1.2
1980-11-13 12:06:17.790 ,3,0,4.,1.2,0.,1.2,0.,1.2,0.,1.2
1980-11-13 12:06:18.990 ,3,0,7.,1.2,0.,1.2,0.,1.2,0.,1.2
1980-11-13 12:06:20.190 ,3,0,1.,1.2,0.,1.2,0.,1.2,0.,1.2
1980-11-13 12:06:21.390 ,3,0,3.,1.2,0.,1.2,0.,1.2,0.,1.2
1980-11-13 12:06:22.590 ,3,0,6.,1.2,0.,1.2,0.,1.2,0.,1.2
1980-11-13 12:06:23.790 ,3,0,3.,1.2,0.,1.2,0.,1.2,0.,1.2
1980-11-13 12:06:24.990 ,3,0,6.,1.2,0.,1.2,0.,1.2,0.,1.2
1980-11-13 12:06:26.190 ,3,0,6.,1.2,0.,1.2,0.,1.2,0.,1.2
1980-11-13 12:06:27.390 ,3,0,4.,1.2,0.,1.2,0.,1.2,0.,1.2
1980-11-13 12:06:28.590 ,3,0,4.,1.2,0.,1.2,0.,1.2,0.,1.2
1980-11-13 12:06:29.790 ,3,0,10.,1.2,0.,1.2,0.,1.2,0.,1.2
1980-11-13 12:06:30.990 ,3,0,5.,1.2,0.,1.2,0.,1.2,0.,1.2
1980-11-13 12:06:32.190 ,3,0,8.,1.2,0.,1.2,0.,1.2,0.,1.2
1980-11-13 12:06:33.390 ,3,0,4.,1.2,0.,1.2,0.,1.2,0.,1.2
1980-11-13 12:06:34.590 ,3,0,10.,1.2,0.,1.2,0.,1.2,0.,1.2
1980-11-13 12:06:35.790 ,3,0,7.,1.2,0.,1.2,0.,1.2,0.,1.2
1980-11-13 12:06:36.990 ,3,0,8.,1.2,0.,1.2,0.,1.2,0.,1.2
1980-11-13 12:06:38.190 ,3,0,3.,1.2,0.,1.2,0.,1.2,0.,1.2
1980-11-13 12:06:39.390 ,3,0,6.,1.2,0.,1.2,0.,1.2,0.,1.2
1980-11-13 12:06:40.590 ,3,0,4.,1.2,0.,1.2,0.,1.2,0.,1.2
1980-11-13 12:06:41.790 ,3,0,10.,1.2,0.,1.2,0.,1.2,0.,1.2
1980-11-13 12:06:42.990 ,3,0,5.,1.2,0.,1.2,0.,1.2,0.,1.2
1980-11-13 12:06:44.190 ,3,0,5.,1.2,0.,1.2,0.,1.2,0.,1.2
1980-11-13 12:06:45.390 ,3,0,2.,1.2,0.,1.2,0.,1.2,0.,1.2
1980-11-13 12:06:46.590 ,3,0,5.,1.2,0.,1.2,0.,1.2,0.,1.2
1980-11-13 12:06:47.790 ,3,0,7.,1.2,0.,1.2,0.,1.2,0.,1.2
1980-11-13 12:06:48.990 ,3,0,3.,1.2,0.,1.2,0.,1.2,0.,1.2
1980-11-13 12:06:50.190 ,3,0,6.,1.2,0.,1.2,0.,1.2,0.,1.2
1980-11-13 12:06:51.390 ,3,0,4.,1.2,0.,1.2,0.,1.2,0.,1.2
1980-11-13 12:06:52.590 ,3,0,6.,1.2,0.,1.2,0.,1.2,0.,1.2
1980-11-13 12:06:53.790 ,3,0,2.,1.2,0.,1.2,0.,1.2,0.,1.2
1980-11-13 12:06:54.990 ,3,0,6.,1.2,0.,1.2,0.,1.2,0.,1.2
1980-11-13 12:06:56.190 ,3,0,5.,1.2,0.,1.2,0.,1.2,0.,1.2
1980-11-13 12:06:57.390 ,3,0,8.,1.2,0.,1.2,0.,1.2,0.,1.2
1980-11-13 12:06:58.590 ,3,0,10.,1.2,0.,1.2,0.,1.2,1.,1.2
1980-11-13 12:06:59.790 ,2,0,5.,1.2,0.,1.2,0.,1.2,0.,1.2
1980-11-13 12:07:00.990 ,2,0,11.,1.2,0.,1.2,0.,1.2,0.,1.2
1980-11-13 12:07:02.190 ,2,0,3.,1.2,0.,1.2,0.,1.2,0.,1.2
1980-11-13 12:07:03.390 ,2,0,3.,1.2,0.,1.2,0.,1.2,0.,1.2
1980-11-13 12:07:04.590 ,2,0,8.,1.2,0.,1.2,0.,1.2,0.,1.2
1980-11-13 12:07:05.790 ,2,0,8.,1.2,0.,1.2,0.,1.2,1.,1.2
1980-11-13 12:07:06.990 ,2,0,4.,1.2,0.,1.2,0.,1.2,0.,1.2
1980-11-13 12:07:08.190 ,2,0,8.,1.2,0.,1.2,0.,1.2,1.,1.2
1980-11-13 12:07:09.390 ,2,0,7.,1.2,0.,1.2,0.,1.2,0.,1.2
1980-11-13 12:07:10.590 ,2,0,8.,1.2,0.,1.2,0.,1.2,0.,1.2
1980-11-13 12:07:11.790 ,2,0,7.,1.2,0.,1.2,0.,1.2,0.,1.2
1980-11-13 12:07:12.990 ,2,0,7.,1.2,0.,1.2,0.,1.2,0.,1.2
1980-11-13 12:07:14.190 ,2,0,8.,1.2,0.,1.2,0.,1.2,0.,1.2
1980-11-13 12:07:15.390 ,2,0,10.,1.2,0.,1.2,0.,1.2,0.,1.2
1980-11-13 12:07:16.590 ,2,0,2.,1.2,0.,1.2,0.,1.2,0.,1.2
1980-11-13 12:07:17.790 ,2,0,3.,1.2,0.,1.2,0.,1.2,0.,1.2
1980-11-13 12:07:18.990 ,2,0,4.,1.2,0.,1.2,0.,1.2,0.,1.2
1980-11-13 12:07:20.190 ,2,0,5.,1.2,0.,1.2,0.,1.2,0.,1.2
1980-11-13 12:07:21.390 ,2,0,9.,1.2,0.,1.2,0.,1.2,0.,1.2
1980-11-13 12:07:22.590 ,2,0,6.,1.2,0.,1.2,0.,1.2,0.,1.2
1980-11-13 12:07:23.790 ,2,0,3.,1.2,0.,1.2,0.,1.2,0.,1.2
1980-11-13 12:07:24.990 ,2,0,6.,1.2,0.,1.2,0.,1.2,0.,1.2
1980-11-13 12:07:26.190 ,2,0,6.,1.2,0.,1.2,0.,1.2,0.,1.2
1980-11-13 12:07:27.390 ,2,0,7.,1.2,0.,1.2,0.,1.2,0.,1.2
1980-11-13 12:07:28.590 ,2,0,6.,1.2,0.,1.2,0.,1.2,0.,1.2
1980-11-13 12:07:29.790 ,2,0,8.,1.2,0.,1.2,0.,1.2,0.,1.2
1980-11-13 12:07:30.990 ,2,0,8.,1.2,0.,1.2,0.,1.2,0.,1.2
1980-11-13 12:07:32.190 ,2,0,7.,1.2,0.,1.2,0.,1.2,0.,1.2
1980-11-13 12:07:33.390 ,2,0,10.,1.2,0.,1.2,0.,1.2,0.,1.2
1980-11-13 12:07:34.590 ,2,0,11.,1.2,0.,1.2,0.,1.2,0.,1.2
1980-11-13 12:07:35.790 ,2,0,6.,1.2,0.,1.2,0.,1.2,0.,1.2
1980-11-13 12:07:36.990 ,2,0,8.,1.2,0.,1.2,0.,1.2,0.,1.2
1980-11-13 12:07:38.190 ,2,0,2.,1.2,0.,1.2,0.,1.2,1.,1.2
1980-11-13 12:07:39.390 ,2,0,8.,1.2,0.,1.2,0.,1.2,0.,1.2
1980-11-13 12:07:40.590 ,2,0,10.,1.2,0.,1.2,0.,1.2,0.,1.2
1980-11-13 12:07:41.790 ,2,0,5.,1.2,0.,1.2,0.,1.2,0.,1.2
1980-11-13 12:07:42.990 ,2,0,9.,1.2,0.,1.2,0.,1.2,0.,1.2
1980-11-13 12:07:44.190 ,2,0,2.,1.2,0.,1.2,0.,1.2,0.,1.2
1980-11-13 12:07:45.390 ,2,0,4.,1.2,0.,1.2,0.,1.2,0.,1.2
1980-11-13 12:07:46.590 ,2,0,5.,1.2,0.,1.2,0.,1.2,0.,1.2
1980-11-13 12:07:47.790 ,1,0,6.,1.2,0.,1.2,0.,1.2,0.,1.2
1980-11-13 12:07:48.990 ,1,0,6.,1.2,0.,1.2,0.,1.2,0.,1.2
1980-11-13 12:07:50.190 ,1,0,8.,1.2,0.,1.2,0.,1.2,0.,1.2
1980-11-13 12:07:51.390 ,1,0,6.,1.2,0.,1.2,0.,1.2,0.,1.2
1980-11-13 12:07:52.590 ,1,0,6.,1.2,0.,1.2,0.,1.2,0.,1.2
1980-11-13 12:07:53.790 ,1,0,6.,1.2,0.,1.2,0.,1.2,0.,1.2
1980-11-13 12:07:54.990 ,1,0,5.,1.2,0.,1.2,0.,1.2,0.,1.2
1980-11-13 12:07:56.190 ,1,0,4.,1.2,0.,1.2,0.,1.2,0.,1.2
1980-11-13 12:07:57.390 ,1,0,9.,1.2,0.,1.2,0.,1.2,0.,1.2
1980-11-13 12:07:58.590 ,1,0,9.,1.2,0.,1.2,1.,1.2,0.,1.2
1980-11-13 12:07:59.790 ,1,0,10.,1.2,0.,1.2,0.,1.2,0.,1.2
1980-11-13 12:08:00.990 ,1,0,6.,1.2,0.,1.2,0.,1.2,0.,1.2
1980-11-13 12:08:02.190 ,1,0,8.,1.2,0.,1.2,0.,1.2,0.,1.2
1980-11-13 12:08:03.390 ,1,0,8.,1.2,0.,1.2,0.,1.2,0.,1.2
1980-11-13 12:08:04.590 ,1,0,6.,1.2,0.,1.2,0.,1.2,0.,1.2
1980-11-13 12:08:05.790 ,1,0,11.,1.2,0.,1.2,0.,1.2,0.,1.2
1980-11-13 12:08:06.990 ,1,0,7.,1.2,0.,1.2,0.,1.2,0.,1.2
1980-11-13 12:08:08.190 ,1,0,4.,1.2,0.,1.2,0.,1.2,0.,1.2
1980-11-13 12:08:09.390 ,1,0,9.,1.2,0.,1.2,0.,1.2,0.,1.2
1980-11-13 12:08:10.590 ,1,0,7.,1.2,0.,1.2,0.,1.2,0.,1.2
1980-11-13 12:08:11.790 ,1,0,8.,1.2,0.,1.2,0.,1.2,0.,1.2
1980-11-13 12:08:12.990 ,1,0,6.,1.2,0.,1.2,0.,1.2,0.,1.2
1980-11-13 12:08:14.190 ,1,0,5.,1.2,0.,1.2,0.,1.2,0.,1.2
1980-11-13 12:08:15.390 ,1,0,14.,1.2,0.,1.2,0.,1.2,0.,1.2
1980-11-13 12:08:16.590 ,1,0,7.,1.2,0.,1.2,0.,1.2,0.,1.2
1980-11-13 12:08:17.790 ,1,0,6.,1.2,0.,1.2,0.,1.2,0.,1.2
1980-11-13 12:08:18.990 ,1,0,12.,1.2,0.,1.2,0.,1.2,0.,1.2
1980-11-13 12:08:20.190 ,1,0,8.,1.2,0.,1.2,0.,1.2,1.,1.2
1980-11-13 12:08:21.390 ,1,0,18.,1.2,0.,1.2,0.,1.2,1.,1.2
1980-11-13 12:08:22.590 ,1,0,10.,1.2,0.,1.2,0.,1.2,0.,1.2
1980-11-13 12:08:23.790 ,1,0,9.,1.2,0.,1.2,0.,1.2,0.,1.2